Location: Unspecified
(0.0000°N, 0.0000°E)
Time: 07:43:58
(UTC+00:00)

Vanguard 2 - Pass Details

Date: 19 December 2018
Orbit: 552 x 2939 km, 32.9° (Epoch: 15 June)

Event Time Altitude Azimuth Distance (km) Brightness Sun altitude
Rises 00:50:56 0° 321° (NW) 4,355 - -63.2°
Reaches altitude 10° 00:53:37 10° 328° (NNW) 3,662 - -62.8°
Maximum altitude 01:03:13 46° 39° (NE) 2,637 - -61.6°
Exits shadow 01:10:33 29° 91° (E) 3,803 11.0 -60.5°
Drops below altitude 10° 01:17:55 10° 107° (ESE) 5,510 12.1 -59.4°
Sets 01:22:57 0° 112° (ESE) 6,698 12.7 -58.6°
